Back to year calendar

Christleton 5k, Chester

11th May 2007

Results courtesy of Justin Realff for Tattenhall Runners
(This is a sortable table - click column heading)
Filter (choose one only!)
Surname:
Cat: Club:
PosNumForenameSurnameCatClubTime
1263JonnyMELLORSMLiverpool Harriers00:14:30
2151SimonMILLSSMSale Harriers00:14:47
3264AndiJONESSMSalford Harriers00:14:49
4138LeeSIEMASZKOSMLiverpool Harriers00:15:27
5165DavidCATTJMLiverpool Harriers00:15:39
66IanHOUSTONSMWrexham AAC00:15:58
771StevenCROWESMEllesmere Port RC00:15:59
8293NickANDREWSSMTelford ac00:16:00
9171PhilDAVIES-PEERLESSSMWirral AC00:16:05
10257JasonMCGONIGLEJMWarrington AC00:16:08
11117BlakeELLISSMTrafford AC00:16:14
12234XavierDESSESMWirral AC00:16:15
13192JoeyPARKINSONM40Liverpool Harriers00:16:16
14116TomBUSHSMAltrincham & District AC00:16:17
15178JamesGRAHAMSMSpectrum Striders00:16:27
16186AndrewLAMONTSMMacclesfield Harriers00:16:30
17112MarkHULMSTONSMWirral AC00:16:33
1886DarrenBLAZIERSMAbergele Harriers00:16:34
1958GrahamHOUGHTONSMSpectrum Striders00:16:38
2031GaryNORGROVESMWrecsam Tri00:16:42
210 Unregistered CompetitorNDB 00:16:43
22270StevenMCCORMACKJMAbergele Harriers00:16:43
23206ClaireMARTINSFTelford Harriers00:16:44
24102NickBURKESMAltrincham & District AC00:16:47
2536ChrisCOOPERM17Wirral AC00:16:48
26266JennyBLIZARDSFRotherham Harriers00:16:50
27187GrahamJENKINSM45West Cheshire AC00:16:51
2884AndrewPENNEYSMWilmslow AC00:16:53
2941BarryGRANEYSMSt Helens Sutton AC00:16:53
3015MichaelROBBINSM40Wrexham AAC00:16:53
3192SamRUSSELLM17Wigan Harriers00:16:53
32289TimCAHILLM45Abergele Harriers00:17:04
33118DavidLIVINGSTONESMAltrincham & District AC00:17:05
34240ChrisSMITHARDJMUnattached00:17:07
35213AdrianTIMMINSSMWarrington AC00:17:07
36115OliviaWALWYNSFAltrincham & District AC00:17:08
37214HeatherTIMMINSJFWarrington AC00:17:12
38243PeteBENYONSMTattenhall Runners00:17:14
3957DewiROBERTSM40Abergele Harriers00:17:18
40150HayleyJENNINGSFTelford Harriers00:17:18
41176DenisDURETM40Ellesmere Port RC00:17:20
4219SteveLOMASSMMacclesfield Harriers00:17:20
4312ColinMARTINM45Spectrum Striders00:17:21
44298PaulFRODSHAMM45West Cheshire AC00:17:25
4554MichaelJONESSMBuckley Runners00:17:27
46203RachaelTHOMPSONSFAltrincham & District AC00:17:29
4766RaphaelMURRAYM50Macclesfield Harriers00:17:33
48129WarrenMASONM40Macclesfield Harriers00:17:34
49265StephenBURTHEMM45Warrington AC00:17:35
5016CarolineHARNEYSFWrexham AAC00:17:36
5156GarethROBERTSM40Abergele Harriers00:17:37
52148RuthHETHERINGTONSFWrexham AAC00:17:45
5333MikeHOUGHTONSMSpectrum Striders00:17:46
54111MatthewRIMMINGTONSMSpectrum Striders00:17:47
5582JonathanBRADSHAWSMUnattached00:17:50
56170AnthonyNICHOLLSSMWrekin Road Runners00:17:55
5717DaveAYTONSMWrexham AAC00:17:58
5813EmmaPARRYSFWrexham AAC00:17:58
59284MortenGAMMELSAETERSMWirral AC00:17:59
6081DanHARRISSMUnattached00:18:00
61236MartinCORTVRIENDM55Denbigh Harriers00:18:04
62200PaulGLOVERM40Warrington Road Runners00:18:05
63220DaveBOOTH ROYDM45Buckley Runners00:18:09
6493AndyDUFFIELDM40West Cheshire AC00:18:09
65126PeterMAHERM50Vale Royal AC00:18:16
66184MarkMESSENGERM40Macclesfield Harriers00:18:17
67242MarilynKITCHINGF35Tattenhall Runners00:18:17
68287AntonyWOODALLSMEyri Harriers00:18:18
69224AnneFARMERSFMacclesfield Harriers00:18:18
7052AdairBROUGHTONSMHelsby RC00:18:19
7132RoryLOTTM17Wirral AC00:18:22
72260MalcolmBALMERM40Penny Lane Striders00:18:24
73286NealeSTEPHENSM45Warrington AC00:18:26
74166GlenWILSONSMVale Royal AC00:18:28
75139RichardHAYESSMWrecsam Tri00:18:30
76147MatthewWHITFIELDM50Ellesmere Port RC00:18:37
77172KeithHATTONM45Liverpool Harriers00:18:38
78193JohnCARROLLM45Vale Royal AC00:18:39
79292MelCRAGGM40Unattached00:18:39
80278JamesELLISM15West Cheshire AC00:18:40
81146NicolaBIRDSFEllesmere Port RC00:18:41
82123AndySEALM45Telford Harriers00:18:46
8374MarcusCROMPTONM40Vale Royal AC00:18:47
84227JohnPARROTTM50Stockport Harriers00:18:50
85280IsabelREDFERNSFColwyn Bay00:18:50
86238ChrisNIELDSMUnattached00:18:52
87276SamRICHARDSM17Chester Tri00:18:58
88197AlisonHARTOPPF40Macclesfield Harriers00:18:59
8991DavidQUINNM45Wilmslow AC00:19:00
90218GrahamDALTONM40Unattached00:19:05
91247ChrisLONEYM45Chester Tri00:19:10
92106LizFARHALLSFSpectrum Striders00:19:12
93201NeilSTANLEYSMWest Cheshire AC00:19:20
9477PaulKAYM50Spectrum Striders00:19:21
95253ShaneYATESSMBuckley Runners00:19:21
9614KeithSCOVELLM45Unattached00:19:25
97221StephenBOTHAMM45Wrecsam Tri00:19:35
98109JaneASHBROOKSFHelsby RC00:19:36
99124SteveSMITHSMVale Royal AC00:19:37
10073HelenWHITBYSFVale Royal AC00:19:37
101209BarryGARDNERSMWest Cheshire AC00:19:39
102219LukePROUDFOOTM17Unattached00:19:42
103300KenBURGESSM60Altrincham ac00:19:45
10496DavidHAINESSMVale Royal AC00:19:50
10572JayJENNIONSSFDeestriders00:19:56
10665David AlanJONESM55Denbigh Harriers00:19:59
107199KeithBROWNM45Warrington Road Runners00:20:03
10848AndySMITHM45Helsby RC00:20:05
109288PaulROWLANDM55Unattached00:20:06
11039PaulTYEM45Unattached00:20:08
11134KaronFORSTERF45Spectrum Striders00:20:15
112256JohnJENNINGSM45Ellesmere Port RC00:20:18
11310GeoffSHAWM50Helsby RC00:20:20
114252DavidTEMPLESMDeestriders00:20:23
115198BobCUNLIFFEM40Unattached00:20:23
116274PhilipWALKERM55Wrexham AAC00:20:25
11788JulianSPENCERM45Spectrum Striders00:20:32
1188AndrewMCKECHNIESMMersey Tri00:20:36
119113DawnURQUHARTF35Buckley Runners00:20:38
120279PeterWEATHERHEADM55Wirral AC00:20:38
121250MichaelRIMMINGTONSMSpectrum Striders00:20:47
122188AlisonHUGHESSFEllesmere Port RC00:20:57
123149AndrewHETHERINGTONSMWest Cheshire AC00:20:57
124299GavinGARNETTSMUnattached00:20:59
12551LindaWORRALF50Chester Tri00:21:01
126127JohnMORRISM60Buckley Runners00:21:03
127132NickyROBERTSF35Unattached00:21:05
128141DaveTAYLORM55Chester Tri00:21:11
12997JohnCLARKEM50Vale Royal AC00:21:13
130158MikeDOWSETTSMUnattached00:21:15
131222LaynieSTOTHART-WILDESFTattenhall Runners00:21:17
132259IvorJOHNSTONEM40Helsby RC00:21:17
133233RussellMURRAYM40Welsh Fell Runners Assoc00:21:18
134248SimonPHILLIPSM45Wrexham AAC00:21:21
135228BobCORINALDISMUnattached00:21:22
136101DerekISHERWOODM45Wirral AC00:21:32
137275RobinFROSTM60Wrexham AAC00:21:34
138281GeoffreyBEATTIEM50Esporta00:21:35
139285PaulBIGGSM40Unattached00:21:41
140294JonathanHUGHESM45Unattached00:21:41
141245TerryAXONM45Unattached00:21:41
142159GeoffREADM55Spectrum Striders00:21:45
143241JackTHOMASM65Buckley Runners00:21:46
14442NeilRICHARDSSMUnattached00:21:48
145251NeilWALSHSMSpectrum Striders00:21:49
14630KimNORGROVEF40Wrecsam Tri00:21:50
14735TimothyYOUDELLM45Unattached00:22:03
148152MartinSTIRNAM50South Cheshire Harriers00:22:05
149277MichaelBRADLEYM50Spectrum Striders00:22:06
150215NickSAVERYSMSaddleworth Runners00:22:08
151210KevinCURTISM50Unattached00:22:12
1527CarolSHAWF45Helsby RC00:22:13
153296RobertBUCKLEYM50Altrincham ac00:22:14
154185MikeCUTLERM50South Cheshire Harriers00:22:16
155258PeterJODDRELLSMUnattached00:22:18
156173DavidOWENM40Unattached00:22:19
157128LisaDAVIESF35West Cheshire AC00:22:22
158230LarryCRAWLEYM55Warrington Road Runners00:22:24
159202CharlotteLINFOOTJFWigan Harriers00:22:27
16069AndyTODDM60Helsby RC00:22:40
161169WendySEARLESFWrekin Road Runners00:22:42
162295CalisBUTTERLYSMUnattached00:22:44
163195ThomasATHERTONM50West Cheshire AC00:22:46
16495AlanJONESSMUnattached00:22:48
16511ChrisNEUKOMM50Unattached00:22:49
166229TarjaKINNUNENF35Penny Lane Striders00:22:57
167114HazelDIRKSENF60Buckley Runners00:22:58
168119AndyGILDONM50Macclesfield Harriers00:23:00
169110JulianMAHYM50North Wales Road Runners Clu00:23:16
17078NatalieMOUNTFORDSFStafford Harriers00:23:19
171182DesmondDROHANM45Unattached00:23:36
17289DavidREDPATHM55Spectrum Striders00:23:36
173142JanetTAYLORF45Chester Tri00:23:39
17437MarkMOLLOYM40Warrington Road Runners00:23:41
175143RobertJONESSMWrecsam Tri00:23:44
17690JanetREDPATHF55Spectrum Striders00:23:49
177211MohammedMULLASMUnattached00:23:50
178235MaureenBARTLEYF35Denbigh Harriers00:23:55
179168JoePARKM70Cheshire Tally-Ho00:23:58
180226AlanJENKINSM55Spectrum Striders00:24:05
181189ChrisSPEEDM40Unattached00:24:06
182100DarrenBURNSM40Unattached00:24:22
18370DavidDAVIESSMUnattached00:24:24
184283PeterEDWARDSM70Northern Vets AC00:24:28
18583CliveLANGHAMM55Unattached00:24:32
18668DavidBOTTOMSM45Chester Tri00:24:39
187225RichardSCARSBROOKM55Unattached00:24:45
188134CharlesTHACKRAYM55West Cheshire AC00:24:45
189157MikeBARRYSMUnattached00:24:46
19067PhilippaHARRISONSFUnattached00:24:52
191175PhilHUGHESM45Unattached00:24:53
1921StephanieCHARMANF55Helsby RC00:24:54
193190NathalieREESF35Unattached00:25:02
194183DaveFLETCHERM40Unattached00:25:04
195246SusanBAIRDF40West Cheshire AC00:25:20
196232HelenBAXANDALLF40Prestatyn Running Club00:25:24
197167GrahamPASSMORESMUnattached00:25:36
1989JanetSHAWF50Helsby RC00:25:44
199205OrlaCAFFERKEYSFUnattached00:25:47
20038CarolineTYEF40Unattached00:25:51
201130ClaireBALLAMYF45Wrecsam Tri00:25:59
202207ShaunMOHANSMUnattached00:26:01
203153GeoffPERKINSM80Northern Vets AC00:26:03
204103SarahRACICOTSFUnattached00:26:05
205121RebeccaDEARMANF40Unattached00:26:07
20628JaneFLANAGANF35Unattached00:26:09
207140DeniseO'HANLONF35Northern Vets AC00:26:10
208137SusanWALSHF45Unattached00:26:28
20944ClaireRICHARDSSFUnattached00:26:29
210196AlisonEVANSSFUnattached00:26:30
211255EricPEN DLETONM75Spectrum Striders00:26:30
212191HilaryMURDOCHF50Unattached00:26:32
213271RayBILLINGTONM70Wrexham AAC00:26:34
214272MikeCONWAYM45Unattached00:26:37
21546SallyBEDFORDF40Unattached00:26:38
21647StephenBEDFORDM45Unattached00:26:44
21780WilliamPRESTONM55ukNetrunner00:26:52
218163SusanSOUTHERNF40Unattached00:26:53
21929BryanGRIFFITHSM40Unattached00:26:53
220268JulieHIRSTF35Prestatyn Running Club00:26:58
221120KathleenGILDONF55Unattached00:27:17
222133AnneHURRELLF50Northern Vets AC00:27:28
22340ClaireMASONF40Unattached00:27:31
22427JoMOTEF45Unattached00:27:55
225223NancyARTELLF40Unattached00:28:12
226208JimMIDDLETONM65Unattached00:28:22
227267DavidGRUNDYM60Birkenhead00:28:29
22898JuliaBOSWELLF45Unattached00:28:36
229105LyndaWALSHF40Unattached00:28:38
230179NormanGRUNDYM60Birkenhead00:28:51
231108KarenSHAWF17Unattached00:28:53
23260DavidSHAWM45Unattached00:28:56
233217LauraKOLODZIEJSKISFUnattached00:28:59
234161WarrenCARNELLSMUnattached00:28:59
235216HelenaJONESSFUnattached00:29:11
23650DanielROGERSONSMUnattached00:29:47
23749LouiseRILEYF35Unattached00:29:50
238162RebeccaGIBBSSFUnattached00:30:00
239144TerriTAYLORF50Unattached00:30:00
240145KenTAYLORM55Unattached00:30:19
241282MargaretWILLIAMSF65Unattached00:31:19
Back to year index - Top of page